When you browse on this site, cookies collect data to enhance your experience and personalize the content and advertising you see.
Visit our Privacy Policy to learn more. By continuing to use the site, you agree to this use of cookies and data.

Tiempo cada hora Pitrufquén

Hoy, 21 Septiembre, Lunes

Tiempo Temperatura Precipitaciones Viento Presión Humedad
00:00 +6°C° 0 mm 0 mps 756 mmHg 92%
01:00 +6°C° 0 mm 0 mps 756 mmHg 91%
02:00 +6°C° 0 mm 0 mps 755 mmHg 91%
03:00 +6°C° 0 mm 0 mps 755 mmHg 90%
04:00 +6°C° 0 mm 0 mps 755 mmHg 90%
05:00 +6°C° 0 mm 0 mps 755 mmHg 88%
06:00 +7°C° 0 mm 0 mps 755 mmHg 86%
07:00 +7°C° 0 mm 0 mps 755 mmHg 85%
08:00 +10°C° 0 mm 0 mps 755 mmHg 77%
09:00 +12°C° 0 mm 0 mps 755 mmHg 70%
10:00 +16°C° 0 mm 1 mps 755 mmHg 62%
11:00 +18°C° 0 mm 1 mps 754 mmHg 60%
12:00 +19°C° 0 mm 1 mps 754 mmHg 58%
13:00 +19°C° 0 mm 2 mps 754 mmHg 56%
14:00 +17°C° 0 mm 2 mps 754 mmHg 59%
15:00 +16°C° 0 mm 2 mps 754 mmHg 62%
16:00 +15°C° 0 mm 2 mps 754 mmHg 65%
17:00 +13°C° 0 mm 2 mps 754 mmHg 76%
18:00 +10°C° 0 mm 1 mps 755 mmHg 86%
19:00 +7°C° 0 mm 1 mps 756 mmHg 96%
20:00 +7°C° 0 mm 1 mps 756 mmHg 97%
21:00 +5°C° 0 mm 0 mps 756 mmHg 97%
22:00 +4°C° 0 mm 0 mps 756 mmHg 98%
23:00 +4°C° 0 mm 0 mps 756 mmHg 98%

Mañana, 22 Septiembre, Martes

Tiempo Temperatura Precipitaciones Viento Presión Humedad
00:00 +4°C° 0 mm 0 mps 756 mmHg 98%
01:00 +5°C° 0 mm 0 mps 756 mmHg 97%
02:00 +5°C° 0 mm 0 mps 756 mmHg 97%
03:00 +5°C° 0 mm 0 mps 756 mmHg 97%
04:00 +4°C° 0 mm 0 mps 756 mmHg 97%
05:00 +5°C° 0 mm 0 mps 756 mmHg 95%
06:00 +5°C° 0 mm 0 mps 757 mmHg 93%
07:00 +6°C° 0 mm 0 mps 757 mmHg 92%
08:00 +8°C° 0 mm 0 mps 757 mmHg 82%
09:00 +11°C° 0 mm 0 mps 756 mmHg 73%
10:00 +15°C° 0 mm 1 mps 756 mmHg 64%
11:00 +16°C° 0 mm 1 mps 756 mmHg 59%
12:00 +16°C° 0 mm 1 mps 756 mmHg 55%
13:00 +17°C° 0 mm 2 mps 756 mmHg 50%
14:00 +17°C° 0 mm 2 mps 755 mmHg 55%
15:00 +16°C° 0 mm 2 mps 755 mmHg 60%
16:00 +15°C° 0 mm 2 mps 755 mmHg 65%
17:00 +13°C° 0 mm 2 mps 756 mmHg 74%
18:00 +10°C° 0 mm 1 mps 756 mmHg 84%
19:00 +8°C° 0 mm 1 mps 757 mmHg 94%
20:00 +7°C° 0 mm 1 mps 757 mmHg 95%
21:00 +5°C° 0 mm 0 mps 757 mmHg 96%
22:00 +4°C° 0 mm 0 mps 757 mmHg 97%
23:00 +4°C° 0 mm 0 mps 757 mmHg 98%

Pasado mañana, 23 Septiembre, Miércoles

Tiempo Temperatura Precipitaciones Viento Presión Humedad
00:00 +4°C° 0 mm 0 mps 757 mmHg 98%
01:00 +3°C° 0 mm 0 mps 757 mmHg 98%
02:00 +3°C° 0 mm 0 mps 756 mmHg 98%
03:00 +3°C° 0 mm 0 mps 756 mmHg 98%
04:00 +4°C° 0 mm 1 mps 756 mmHg 98%
05:00 +3°C° 0 mm 0 mps 756 mmHg 96%
06:00 +4°C° 0 mm 0 mps 756 mmHg 94%
07:00 +5°C° 0 mm 0 mps 756 mmHg 91%
08:00 +9°C° 0 mm 1 mps 756 mmHg 79%
09:00 +12°C° 0 mm 1 mps 755 mmHg 67%
10:00 +15°C° 0 mm 1 mps 755 mmHg 55%
11:00 +16°C° 0 mm 1 mps 755 mmHg 52%
12:00 +18°C° 0 mm 1 mps 754 mmHg 48%
13:00 +19°C° 0 mm 1 mps 754 mmHg 45%
14:00 +17°C° 0 mm 2 mps 754 mmHg 51%
15:00 +17°C° 0 mm 2 mps 753 mmHg 57%
16:00 +16°C° 0 mm 2 mps 753 mmHg 63%
17:00 +13°C° 0 mm 2 mps 754 mmHg 73%
18:00 +11°C° 0 mm 1 mps 754 mmHg 84%
19:00 +8°C° 0 mm 1 mps 754 mmHg 94%
20:00 +8°C° 0 mm 1 mps 755 mmHg 95%
21:00 +6°C° 0 mm 0 mps 755 mmHg 96%
22:00 +5°C° 0 mm 0 mps 755 mmHg 97%
23:00 +5°C° 0 mm 0 mps 755 mmHg 97%

24 Septiembre, Jueves

Tiempo Temperatura Precipitaciones Viento Presión Humedad
00:00 +5°C° 0 mm 0 mps 755 mmHg 96%
01:00 +4°C° 0 mm 0 mps 755 mmHg 96%
02:00 +4°C° 0 mm 0 mps 755 mmHg 96%
03:00 +4°C° 0 mm 1 mps 754 mmHg 97%
04:00 +4°C° 0 mm 1 mps 754 mmHg 97%
05:00 +4°C° 0 mm 1 mps 755 mmHg 95%
06:00 +5°C° 0 mm 1 mps 755 mmHg 92%
07:00 +5°C° 0 mm 0 mps 755 mmHg 90%
08:00 +8°C° 0 mm 1 mps 755 mmHg 80%
09:00 +11°C° 0 mm 1 mps 755 mmHg 70%
10:00 +13°C° 0 mm 1 mps 755 mmHg 60%
11:00 +14°C° 0 mm 2 mps 754 mmHg 57%
12:00 +16°C° 0 mm 2 mps 754 mmHg 53%
13:00 +17°C° 0 mm 2 mps 754 mmHg 49%
14:00 +16°C° 0 mm 2 mps 754 mmHg 53%
15:00 +16°C° 0 mm 2 mps 754 mmHg 58%
16:00 +15°C° 0 mm 2 mps 754 mmHg 62%
17:00 +12°C° 0 mm 2 mps 755 mmHg 73%
18:00 +10°C° 0 mm 1 mps 755 mmHg 84%
19:00 +7°C° 0 mm 1 mps 756 mmHg 95%
20:00 +7°C° 0 mm 1 mps 756 mmHg 96%
21:00 +6°C° 0 mm 1 mps 757 mmHg 96%
22:00 +4°C° 0 mm 0 mps 757 mmHg 97%
23:00 +4°C° 0 mm 0 mps 757 mmHg 97%

25 Septiembre, Viernes

Tiempo Temperatura Precipitaciones Viento Presión Humedad
00:00 +4°C° 0 mm 0 mps 757 mmHg 97%
01:00 +3°C° 0 mm 0 mps 757 mmHg 98%
02:00 +3°C° 0 mm 0 mps 757 mmHg 98%
03:00 +3°C° 0 mm 0 mps 757 mmHg 98%
04:00 +2°C° 0 mm 0 mps 757 mmHg 97%
05:00 +3°C° 0 mm 0 mps 758 mmHg 95%
06:00 +4°C° 0 mm 0 mps 758 mmHg 93%
07:00 +5°C° 0 mm 0 mps 758 mmHg 91%
08:00 +7°C° 0 mm 0 mps 758 mmHg 82%
09:00 +10°C° 0 mm 1 mps 758 mmHg 72%
10:00 +12°C° 0 mm 1 mps 758 mmHg 63%
11:00 +14°C° 0 mm 1 mps 758 mmHg 59%
12:00 +15°C° 0 mm 1 mps 758 mmHg 54%
13:00 +16°C° 0 mm 2 mps 758 mmHg 50%
14:00 +16°C° 0 mm 2 mps 758 mmHg 54%
15:00 +15°C° 0 mm 2 mps 758 mmHg 59%
16:00 +14°C° 0 mm 2 mps 758 mmHg 63%
17:00 +12°C° 0 mm 2 mps 758 mmHg 74%
18:00 +10°C° 0 mm 1 mps 759 mmHg 85%
19:00 +7°C° 0 mm 1 mps 759 mmHg 96%
20:00 +7°C° 0 mm 1 mps 760 mmHg 97%
21:00 +5°C° 0 mm 0 mps 760 mmHg 97%
22:00 +4°C° 0 mm 0 mps 760 mmHg 98%
23:00 +4°C° 0 mm 0 mps 760 mmHg 98%

26 Septiembre, Sábado

Tiempo Temperatura Precipitaciones Viento Presión Humedad
00:00 +4°C° 0 mm 0 mps 760 mmHg 98%
01:00 +3°C° 0 mm 0 mps 759 mmHg 98%
02:00 +3°C° 0 mm 0 mps 759 mmHg 98%
03:00 +3°C° 0 mm 0 mps 759 mmHg 98%
04:00 +3°C° 0 mm 0 mps 759 mmHg 98%
05:00 +4°C° 0 mm 0 mps 758 mmHg 97%
06:00 +4°C° 0 mm 0 mps 758 mmHg 95%
07:00 +5°C° 0 mm 0 mps 758 mmHg 93%
08:00 +8°C° 0 mm 1 mps 758 mmHg 84%
09:00 +9°C° 0 mm 2 mps 757 mmHg 76%
10:00 +11°C° 0 mm 3 mps 756 mmHg 67%
11:00 +12°C° 0 mm 3 mps 756 mmHg 64%
12:00 +13°C° 0 mm 3 mps 755 mmHg 60%
13:00 +14°C° 0 mm 3 mps 755 mmHg 57%
14:00 +14°C° 0 mm 3 mps 755 mmHg 59%
15:00 +14°C° 0 mm 3 mps 755 mmHg 60%
16:00 +13°C° 0 mm 3 mps 754 mmHg 62%
17:00 +12°C° 0 mm 2 mps 755 mmHg 73%
18:00 +9°C° 0 mm 2 mps 755 mmHg 84%
19:00 +7°C° 0 mm 1 mps 755 mmHg 95%
20:00 +6°C° 0 mm 1 mps 756 mmHg 96%
21:00 +6°C° 0 mm 1 mps 756 mmHg 96%
22:00 +4°C° 0 mm 0 mps 756 mmHg 97%
23:00 +4°C° 0 mm 0 mps 756 mmHg 97%
Mostrar más